This is the latest recevied weather packets stored in our database for station/object KB3FKJ. If no packets are shown the sender has not sent any weather packets the latest 10 day(s).
| Time | Temp. | Humidity | Pressure | Rain* | Wind** | Luminosity | Snow |
|---|---|---|---|---|---|---|---|
| 1778112213 | 11.11° C | 82% | 1010.7 hPa | 0 mm | - | 2 W/m² | - |
| 1778111910 | 11.11° C | 82% | 1010.7 hPa | 0 mm | - | 4 W/m² | - |
| 1778111606 | 11.11° C | 81% | 1010.4 hPa | 0 mm | - | 8 W/m² | - |
| 1778111303 | 11.11° C | 81% | 1010.3 hPa | 0 mm | - | 10 W/m² | - |
| 1778111000 | 11.11° C | 82% | 1010.1 hPa | 0 mm | - | 12 W/m² | - |
| 1778110698 | 11.11° C | 82% | 1010.3 hPa | 0 mm | - | 12 W/m² | - |
| 1778110393 | 11.11° C | 83% | 1010.1 hPa | 0 mm | - | 8 W/m² | - |
| 1778110091 | 11.11° C | 81% | 1010.1 hPa | 0 mm | - | 7 W/m² | - |
| 1778109786 | 11.11° C | 82% | 1009.7 hPa | 0 mm | - | 10 W/m² | - |
| 1778109483 | 11.11° C | 82% | 1009.8 hPa | 0 mm | - | 9 W/m² | - |
| 1778109181 | 11.11° C | 81% | 1009.8 hPa | 0 mm | - | 10 W/m² | - |
| 1778108878 | 11.11° C | 81% | 1009.8 hPa | 0 mm | - | 9 W/m² | - |
| 1778108575 | 11.11° C | 82% | 1009.9 hPa | 0 mm | - | 8 W/m² | - |
| 1778108272 | 11.67° C | 83% | 1010.1 hPa | 0 mm | - | 8 W/m² | - |
| 1778107968 | 11.67° C | 83% | 1010 hPa | 0 mm | - | 9 W/m² | - |
| 1778107659 | 11.67° C | 83% | 1010.1 hPa | 0 mm | - | 8 W/m² | - |
| 1778107356 | 11.67° C | 82% | 1009.9 hPa | 0 mm | - | 9 W/m² | - |
| 1778107053 | 11.67° C | 82% | 1010 hPa | 0 mm | - | 13 W/m² | - |
| 1778106748 | 11.67° C | 82% | 1009.7 hPa | 0 mm | - | 16 W/m² | - |
| 1778106446 | 12.22° C | 81% | 1009.6 hPa | 0 mm | - | 17 W/m² | - |
| 1778106141 | 12.22° C | 81% | 1009.2 hPa | 0 mm | - | 31 W/m² | - |
| 1778105839 | 12.22° C | 81% | 1009.2 hPa | 0 mm | - | 37 W/m² | - |
| 1778105537 | 12.22° C | 81% | 1009.1 hPa | 0 mm | - | 40 W/m² | - |
| 1778105234 | 12.22° C | 82% | 1008.8 hPa | 0 mm | - | 31 W/m² | - |
| 1778104929 | 12.78° C | 80% | 1009.2 hPa | 0 mm | - | 22 W/m² | - |
* Rain latest hour (hover to see other rain measurements)
** Current wind speed in m/s (hover to see current wind gust speed)